Smith Lake Weather Center

Moon Phase Calendar



Smith Lake Water Level
Online Cameras

 


      

Current Conditions in Good Hope
5/27/2022 1:37:19 AM

66°F
Feels Like 66
Clouds
Humidity
78%
Pressure
29.85"
Wind
3.2 mph (SW)
Dew Point
59°F
UV Index
0/10 (Low)
Visibility
6 mi

Hourly Forecast

Date & Time Fri, May 27
1:00 AM
Fri, May 27
2:00 AM
Fri, May 27
3:00 AM
Fri, May 27
4:00 AM
Fri, May 27
5:00 AM
Fri, May 27
6:00 AM
Fri, May 27
7:00 AM
Fri, May 27
8:00 AM
Fri, May 27
9:00 AM
Fri, May 27
10:00 AM
Fri, May 27
11:00 AM
Fri, May 27
12:00 PM
Fri, May 27
1:00 PM
Fri, May 27
2:00 PM
Fri, May 27
3:00 PM
Fri, May 27
4:00 PM
Fri, May 27
5:00 PM
Fri, May 27
6:00 PM
Fri, May 27
7:00 PM
Fri, May 27
8:00 PM
Fri, May 27
9:00 PM
Fri, May 27
10:00 PM
Fri, May 27
11:00 PM
Sat, May 28
12:00 AM
Sat, May 28
1:00 AM
Sat, May 28
2:00 AM
Sat, May 28
3:00 AM
Sat, May 28
4:00 AM
Sat, May 28
5:00 AM
Sat, May 28
6:00 AM
Sat, May 28
7:00 AM
Sat, May 28
8:00 AM
Sat, May 28
9:00 AM
Sat, May 28
10:00 AM
Sat, May 28
11:00 AM
Sat, May 28
12:00 PM
Sat, May 28
1:00 PM
Sat, May 28
2:00 PM
Sat, May 28
3:00 PM
Sat, May 28
4:00 PM
Sat, May 28
5:00 PM
Sat, May 28
6:00 PM
Sat, May 28
7:00 PM
Sat, May 28
8:00 PM
Sat, May 28
9:00 PM
Sat, May 28
10:00 PM
Sat, May 28
11:00 PM
Sun, May 29
12:00 AM
Condition
Clouds

Clouds

Clouds

Clouds

Clouds

Clouds

Clouds

Clear

Clear

Clear

Clear

Clear

Clear

Clouds

Clouds

Clouds

Clouds

Clouds

Clouds

Clouds

Clouds

Clouds

Clouds

Clouds

Clouds

Clear

Clear

Clear

Clear

Clear

Clear

Clear

Clear

Clear

Clear

Clear

Clear

Clear

Clear

Clear

Clear

Clear

Clear

Clear

Clear

Clear

Clear

Clear
Temperature 65°F66°F65°F63°F60°F58°F59°F63°F66°F69°F72°F75°F77°F77°F74°F72°F71°F70°F68°F66°F63°F61°F59°F58°F57°F57°F57°F56°F55°F55°F60°F65°F69°F72°F75°F77°F79°F80°F81°F81°F80°F77°F72°F67°F66°F65°F64°F62°F
Feels Like 65°F66°F65°F62°F60°F58°F59°F62°F66°F69°F72°F74°F76°F77°F74°F72°F71°F70°F68°F66°F63°F61°F59°F58°F57°F57°F56°F56°F55°F55°F60°F65°F68°F71°F74°F77°F79°F81°F81°F81°F80°F78°F73°F68°F66°F65°F64°F62°F
Cloudiness 46%54%55%48%40%30%20%0%0%0%0%0%5%79%89%93%95%96%96%78%63%51%38%31%26%0%0%0%0%0%0%0%0%0%0%0%0%0%0%0%0%0%1%0%0%0%0%0%
Visibility 6 mi6 mi6 mi6 mi6 mi6 mi6 mi6 mi6 mi6 mi6 mi6 mi6 mi6 mi6 mi6 mi6 mi6 mi6 mi6 mi6 mi6 mi6 mi6 mi6 mi6 mi6 mi6 mi6 mi6 mi6 mi6 mi6 mi6 mi6 mi6 mi6 mi6 mi6 mi6 mi6 mi6 mi6 mi6 mi6 mi6 mi6 mi6 mi
Precipitation 0%0%0%0%0%0%0%0%0%0%0%0%0%0%0%0%0%0%0%0%0%0%0%0%0%0%0%0%0%0%0%0%0%0%0%0%0%0%0%0%0%0%0%0%0%0%0%0%
Humidity 77%78%77%81%85%90%85%72%63%57%53%49%47%47%57%64%68%71%76%79%86%89%92%92%92%92%92%93%95%96%87%76%68%61%56%51%48%46%45%45%48%59%73%78%79%80%82%85%
Dew Point 58°F59°F58°F57°F56°F55°F55°F54°F53°F54°F54°F54°F55°F55°F58°F59°F60°F60°F60°F59°F59°F58°F56°F56°F55°F54°F54°F54°F54°F54°F56°F57°F58°F57°F58°F57°F58°F58°F57°F57°F58°F62°F63°F60°F59°F58°F58°F58°F
Pressure 29.85"29.85"29.85"29.85"29.88"29.88"29.91"29.91"29.91"29.91"29.91"29.91"29.88"29.88"29.88"29.88"29.88"29.88"29.91"29.91"29.94"29.94"29.94"29.94"29.94"29.91"29.91"29.94"29.94"29.97"29.97"30"30"29.97"29.97"29.94"29.94"29.91"29.91"29.88"29.88"29.88"29.88"29.91"29.91"29.91"29.91"29.91"
Wind Speed 3.6 mph3.2 mph4.4 mph4.6 mph4.6 mph4.3 mph5.2 mph7.4 mph8.6 mph8.8 mph8.6 mph9 mph9.4 mph9.4 mph7.2 mph6.5 mph6.7 mph6.1 mph4.8 mph4.4 mph5.5 mph5.4 mph4.4 mph4.2 mph3.4 mph3 mph3.4 mph3.6 mph4.4 mph4.3 mph4 mph5.4 mph5.4 mph5.1 mph4.4 mph4.6 mph3.9 mph3.1 mph3 mph3.3 mph4.1 mph5.1 mph5 mph4.7 mph4.4 mph4.4 mph4.3 mph3.4 mph
Wind
Direction
221°
SW
221°
SW
213°
SSW
235°
SW
265°
W
266°
W
264°
W
269°
W
268°
W
270°
W
269°
W
272°
W
272°
W
276°
W
278°
W
282°
WNW
290°
WNW
295°
WNW
302°
WNW
323°
NW
351°
N
357°
N
351°
N
349°
N

N
14°
NNE

N
356°
N
351°
N
359°
N

N
10°
N
14°
NNE
17°
NNE
18°
NNE
22°
NNE
27°
NNE
34°
NE
19°
NNE
24°
NNE
33°
NNE
42°
NE
45°
NE
53°
NE
68°
ENE
85°
E
93°
E
92°
E

Daily Forecast

Date High Low Precip. Humidity
Today
May 27

Clear
77 °F
58 °F
0%
49%
Saturday
May 28

Clear
81 °F
55 °F
0%
51%
Sunday
May 29

Clear
86 °F
60 °F
0%
38%
Monday
May 30

Clear
88 °F
61 °F
0%
40%
Tuesday
May 31

Clear
91 °F
64 °F
0%
40%
Wednesday
Jun 1

Clouds
92 °F
69 °F
0%
37%
Thursday
Jun 2

Rain
90 °F
68 °F
86%
43%
Friday
Jun 3

Clouds
82 °F
63 °F
43%
44%
Saturday
Jun 4

Clear
85 °F
59 °F
0%
36%
Sunday
Jun 5

Clouds
91 °F
63 °F
16%
41%
Monday
Jun 6

Rain
95 °F
68 °F
98%
40%
Tuesday
Jun 7

Rain
93 °F
66 °F
98%
42%
Wednesday
Jun 8

Rain
92 °F
67 °F
92%
41%
Thursday
Jun 9

Rain
78 °F
67 °F
100%
72%
Friday
Jun 10

Rain
82 °F
64 °F
38%
51%
Saturday
Jun 11

Rain
82 °F
64 °F
100%
51%

Temperature 8-14 Day Outlook



Precipitation 8-14 Day Outlook




Quick Links
Smith Lake News
Smith Lake Photos
Smith Lake Videos




About Us
Contact Us
Site Map
Search Site
Advertise With Us
   
www.SmithLake.info
THE SMITH LAKE WEBSITE

Copyright 2022, Lakes Online
Privacy    |    Legal